Flag for Angola Weather past 2 weeks in Huambo, Angola

Now
75 °F

Scattered clouds.


Feels Like: 77 °F
Forecast: 50 / 79 °F
Wind: 7 mph from West

Location: Luanda Airport

Current Time: Jul 29, 2014 at 1:22:34 PM

Latest Report: Jul 29, 2014 at 12:00 PM


Visibility: N/A

Pressure: 29.95 "Hg

Humidity: 61%

Dew point: 61 °F

Location of HuamboLocation

Historic Weather in Huambo — Graph

°F

Huambo temperature yesterday

Maximum temperature yesterday: 75 °F (at 10:00 AM)
Minimum temperature yesterday: 64 °F (at 2:00 AM)
Average temperature yesterday: 69 °F

Past Weeks' High & Low Weather Summary

 TemperatureHumidityPressure
High77 °F (Jul 20, 1:00 PM)94% (Jul 16, 12:00 AM)30.30 "Hg (Jul 16, 12:00 AM)
Low63 °F (Jul 20, 4:00 AM)38% (Jul 19, 7:00 PM)29.89 "Hg (Jul 28, 3:00 PM)
Average69 °F79%30.03 "Hg
* Reported Jul 14 12:00 Noon — Jul 29 12:00 Noon, Huambo, Weather by CustomWeather, © 2014

Note: Actual official high and low records may vary slightly from our data, if they occured in-between our weather recording intervals... More about our weather records

Advertising

Huambo weather history for previous 24 hours

 ConditionsComfort  
Time TempWeatherWind HumidityBarometerVisibility
12:00 PM
Jul 29
75 °FScattered clouds.7 mph61%29.95 "HgN/A
11:00 AM75 °FPartly sunny.6 mph61%29.98 "HgN/A
10:00 AM73 °FPartly sunny.2 mph69%29.98 "Hg6 mi
9:00 AM70 °FFog.6 mph83%30.01 "Hg2 mi
8:00 AM66 °FPartly sunny.6 mph94%30.01 "Hg4 mi
7:00 AM64 °FFog.5 mph94%29.98 "Hg2 mi
6:00 AM64 °FPassing clouds.5 mph94%29.98 "Hg5 mi
5:00 AM64 °FPassing clouds.5 mph94%29.98 "HgN/A
4:00 AM64 °FClear.5 mph94%29.95 "Hg10 mi
3:00 AM66 °FClear.3 mph88%29.95 "Hg10 mi
2:00 AM66 °FClear.6 mph94%29.98 "Hg10 mi
1:00 AM66 °FClear.5 mph94%29.98 "Hg10 mi
12:00 AM66 °FClear.7 mph94%29.98 "Hg10 mi
11:00 PM
Jul 28
68 °FClear.5 mph88%30.01 "Hg10 mi
10:00 PM68 °FPassing clouds.7 mph88%30.01 "HgN/A
9:00 PM68 °FPassing clouds.6 mph83%29.98 "HgN/A
8:00 PM70 °FPassing clouds.5 mph73%29.95 "HgN/A
7:00 PM70 °FPassing clouds.5 mph73%29.95 "HgN/A
6:00 PM70 °FPassing clouds.5 mph73%29.89 "HgN/A
5:00 PM72 °FPassing clouds.7 mph69%29.89 "HgN/A
4:00 PM73 °FPassing clouds.10 mph65%29.89 "HgN/A
3:00 PM73 °FPassing clouds.9 mph65%29.89 "HgN/A
2:00 PM75 °FScattered clouds.8 mph65%29.92 "HgN/A
1:00 PM75 °FScattered clouds.7 mph65%29.95 "HgN/A
Weather by CustomWeather, © 2014

See weather overviewHow to use our weather pages